SCP
0 0 0 0 0 0 0 0 -0 -0 0 0 0 0 0 0 0 0 0 0 0 0 -0 -0 0 -0 -0 -0 -0 -0 -0 -0 -0 -0 -0 0 0 0 -0 -0 -0 -0 -0 -0 -0 -0 -0 -0 -0
0 0 0 0 -0 -0 0 0 -0 -0 0 0 0 0 0 0 0 0 0 0 0 -0 -0 0 0 -0 -0 -0 -0 -0 -0 -0 -0 -0 0 0 0 -0 -0 -0 -0 -0 -0 -0 -0 -0 -0 -0 -0
0 0 0 0 0 0 0 -0 -0 -0 0 0 0 0 0 0 0 0 0 0 -0 0 -0 0 0 -0 -0 -0 -0 -0 -0 -0 -0 -0 0 0 0 0 0 -0 -0 -0 -0 -0 0 -0 -0 -0 -0
0 0 -0 -0 0 -0 -0 -0 -0 -0 0 0 0 0 0 0 0 -0 0 -0 -0 0 0 0 -0 -0 -0 0 -0 -0 -0 -0 0 0 0 0 -0 0 -0 -0 -0 -0 -0 -0 -0 -0 -0 -0 0
0 0 0 0 -0 0 0 -0 -0 -0 0 0 0 0 0 0 0 -0 -0 -0 -0 0 0 0 0 0 0 -0 -0 -0 -0 -0 0 0 0 -0 -0 -0 -0 -0 -0 -0 0 0 0 0 -0 0 0
0 0 0 -0 0 0 0 -0 0 0 0 0 0 0 0 0 -0 -0 -0 -0 -0 0 0 0 0 0 -0 -0 -0 -0 0 0 -0 -0 0 0 0 -0 -0 0 0 -0 -0 -0 -0 -0 0 0 0
0 0 0 0 0 0 0 0 0 0 0 0 0 0 0 0 0 -0 -0 0 0 0 0 0 0 0 -0 -0 -0 -0 -0 0 -0 -0 -0 0 -0 -0 -0 0 0 -0 0 -0 -0 -0 0 0 0
0 0 0 0 0 0 0 0 0 0 0 0 0 0 0 0 0 0 0 0 0 0 0 0 0 0 0 -0 -0 -0 -0 -0 0 0 0 0 -0 -0 0 0 0 -0 -0 0 0 0 0 0 0
0 0 0 0 0 0 0 0 0 0 0 0 0 0 0 0 0 0 0 0 0 0 0 0 0 0 0 -0 -0 0 0 0 0 0 0 0 0 0 0 0 0 -0 -0 0 0 0 0 0 0
0 0 -0 0 0 -0 -0 0 0 0 0 0 0 0 -0 -0 0 0 0 0 0 0 0 0 0 0 -0 -0 0 0 0 0 0 0 0 0 0 0 0 0 0 0 0 0 0 0 0 0 -0
0 0 0 0 0 -0 -0 0 0 0 0 0 0 -0 -0 0 0 0 0 0 0 0 0 0 0 -0 -0 0 0 0 0 0 0 0 0 0 0 0 0 -0 -0 -0 -0 -0 -0 -0 -0 -0 -0
0 0 0 0 0 0 0 0 0 0 0 0 0 -0 0 0 0 0 0 0 -0 -0 0 0 -0 -0 -0 0 0 0 0 0 0 0 0 0 0 0 0 0 -0 -0 -0 -0 -0 -0 -0 0 0
0 0 0 0 0 0 0 0 0 0 0 0 0 0 0 -0 -0 0 0 0 0 -0 -0 -0 -0 -0 0 0 0 0 0 0 0 0 0 0 0 0 0 0 0 -0 -0 -0 -0 -0 -0 0 0
0 0 0 0 0 0 0 0 0 0 0 0 0 0 -0 -0 -0 0 0 0 -0 -0 -0 -0 -0 0 0 0 0 0 0 0 0 0 0 0 0 0 0 0 0 0 0 -0 -0 -0 -0 0 0
0 0 0 0 0 0 0 -0 0 0 0 0 0 0 0 0 0 0 0 -0 -0 -0 -0 -0 0 0 0 0 0 0 0 0 0 0 0 0 0 0 0 0 0 0 0 0 0 0 0 0 0
0 0 0 0 0 0 0 0 0 0 0 0 0 0 0 0 0 0 0 0 0 0 0 0 0 0 0 0 0 0 0 0 0 0 0 0 0 0 0 0 0 0 0 0 0 0 0 0 0
0 0 0 0 0 0 0 0 0 0 0 0 0 0 0 0 0 0 0 0 0 0 0 0 0 0 0 0 0 0 0 0 0 0 0 0 0 0 0 0 0 0 0 0 0 0 0 0 0
0 0 0 0 0 0 0 0 0 0 0 0 0 0 0 0 0 0 0 0 0 0 0 0 0 0 0 0 0 0 0 0 0 0 0 0 0 0 0 0 0 0 0 0 0 0 0 0 0
0 0 0 0 0 0 0 0 0 -0 -0 0 -0 -0 -0 -0 0 0 0 0 0 0 0 0 0 0 0 0 0 0 0 0 0 0 0 0 0 0 0 0 0 0 0 0 0 0 0 0 0
0 0 0 0 0 0 0 0 0 -0 -0 -0 -0 -0 -0 -0 0 0 0 0 0 0 0 0 0 0 0 0 0 0 0 0 0 0 0 0 0 0 0 0 0 0 0 0 0 0 0 0 0
0 0 0 0 0 0 0 -0 -0 0 0 0 -0 0 0 0 0 0 0 0 0 0 0 0 0 0 0 0 0 0 0 0 0 0 0 0 0 0 0 0 0 0 0 0 0 0 0 0 0
0 0 0 0 0 0 0 -0 0 0 0 0 0 0 0 0 0 0 0 0 0 0 0 0 0 0 0 0 0 0 0 0 0 0 0 0 0 0 0 0 0 0 0 0 0 0 0 0 0
0 0 0 0 0 0 0 0 -0 0 0 0 0 0 0 0 0 0 0 0 0 0 0 0 0 0 0 0 0 0 0 0 0 0 0 0 0 0 0 0 0 0 0 0 0 0 0 0 0
0 0 0 0 0 0 0 0 -0 0 0 0 0 0 0 0 0 0 0 0 0 0 0 0 0 0 0 0 0 0 0 0 0 0 0 0 0 0 0 0 0 0 0 0 0 0 0 0 0
0 0 0 0 0 0 0 0 0 0 0 0 0 0 0 0 0 0 0 0 0 0 0 0 0 0 0 0 0 0 0 0 0 0 0 0 0 0 0 0 0 0 0 0 0 0 0 0 0
0 0 0 0 0 0 0 0 0 0 0 0 0 0 0 0 0 0 0 0 0 0 0 0 0 0 0 0 0 0 0 0 0 0 0 0 0 0 0 0 0 0 0 0 0 0 0 0 0
0 0 0 0 0 0 0 0 0 0 0 0 0 0 0 0 0 0 0 0 0 0 0 0 0 0 0 0 0 0 0 0 0 0 0 0 0 0 0 0 0 0 0 0 0 0 0 0 0
0 0 0 0 0 0 0 0 0 0 0 0 0 0 0 0 0 0 0 0 0 0 0 0 0 0 0 0 0 0 0 0 0 0 0 0 0 0 0 0 0 0 0 0 0 0 0 0 0
0 0 0 0 0 0 0 0 0 0 0 0 0 0 0 0 0 0 0 0 0 0 0 0 0 0 0 0 0 0 0 0 0 0 0 0 0 0 0 0 0 0 0 0 0 0 0 0 0
0 0 0 0 0 0 0 0 0 0 0 0 0 0 0 0 0 0 0 0 0 0 0 0 0 0 0 0 0 0 0 0 0 0 0 0 0 0 0 0 0 0 0 0 0 0 0 0 0
Wind_Speed_500mb
5 2 2 0 8 2 9 8 3 9 7 2 3 2 14 19 9 7 16 6 8 13 14 15 14 9 9 18 16 16 21 24 26 28 27 31 40 43 31 16 22 27 32 32 35 33 35 34 34
3 1 1 1 4 8 8 9 12 6 15 15 10 6 11 11 13 17 8 6 9 12 12 12 9 15 19 15 16 21 21 21 25 30 25 33 38 39 19 21 23 25 32 36 34 36 37 36 36
2 2 4 2 2 8 9 9 13 18 12 2 7 14 7 9 12 8 12 6 10 10 13 14 17 14 12 13 17 21 16 20 25 27 29 31 29 30 16 18 21 34 36 33 35 39 37 33 31
4 2 3 3 15 8 8 16 19 21 5 2 12 15 11 11 7 12 8 7 9 9 12 11 11 15 20 18 16 16 17 19 25 25 33 29 28 21 21 24 31 34 35 37 40 38 36 33 30
4 1 3 8 11 8 7 13 17 10 10 9 2 9 10 10 15 15 7 8 12 10 9 12 14 17 23 21 19 18 18 20 24 30 34 33 30 20 26 33 33 38 39 41 42 40 37 34 32
2 2 5 7 12 10 11 17 10 7 9 9 10 12 9 18 19 13 11 9 9 8 10 12 15 18 21 20 19 18 21 24 24 26 32 35 29 21 24 29 34 40 42 44 43 40 38 35 34
2 2 5 11 15 13 11 16 9 8 11 7 13 7 11 23 22 15 11 10 10 11 10 12 15 18 21 19 19 21 23 24 22 27 30 28 28 28 31 35 38 42 43 44 42 39 38 36 38
1 2 9 4 16 10 17 14 3 5 7 13 9 7 10 29 25 16 11 8 10 12 12 14 15 17 18 19 20 21 23 22 25 30 32 29 31 32 33 39 41 40 41 42 42 40 38 38 39
4 4 7 10 15 14 23 12 9 8 12 7 7 8 10 29 25 19 12 9 10 11 13 14 15 17 18 19 20 25 25 26 27 29 30 28 29 30 33 38 38 39 39 41 40 39 39 40 40
2 3 3 5 7 16 26 10 21 12 12 7 7 9 17 32 26 19 14 9 8 11 12 12 12 15 19 20 22 24 26 27 25 25 25 27 28 29 30 34 34 37 37 38 39 39 40 40 43
3 2 7 8 5 17 24 12 12 13 9 9 12 18 25 35 29 23 17 11 9 9 10 10 11 16 19 20 21 23 24 24 23 24 25 25 25 27 28 30 31 33 35 36 36 38 42 44 46
6 5 3 7 9 14 21 16 10 11 5 9 11 15 26 34 30 25 19 12 8 8 8 11 11 15 17 18 18 20 21 22 21 20 21 23 22 24 25 26 28 29 33 33 35 39 41 43 44
5 8 7 10 12 11 18 8 2 7 12 9 12 22 30 33 30 26 23 16 10 7 7 10 9 12 15 16 15 17 19 19 19 18 18 20 20 20 21 22 24 26 30 32 34 37 37 39 41
9 15 14 6 9 9 8 6 6 7 17 16 16 25 31 33 31 29 24 18 13 8 6 8 8 10 12 13 13 15 16 17 16 17 16 16 17 17 17 18 20 23 26 29 31 33 34 35 36
20 11 8 6 3 4 2 9 12 11 18 19 22 27 33 34 33 26 21 20 15 11 9 8 9 9 10 11 12 13 14 15 15 15 15 14 14 15 14 15 16 19 22 25 27 28 31 31 32
8 4 12 8 5 2 7 14 7 14 19 21 24 28 36 38 33 30 26 24 20 16 13 11 10 10 9 10 11 12 13 13 14 13 13 13 13 13 13 13 14 15 17 22 24 25 26 28 28
5 15 19 5 6 4 11 11 7 11 19 23 27 31 35 37 39 38 33 28 25 21 18 15 13 12 11 11 11 12 13 13 13 12 12 12 11 11 10 11 11 12 14 18 20 21 22 24 25
29 24 9 24 5 7 13 30 15 12 17 25 28 32 37 40 43 38 37 35 32 29 25 21 18 14 13 12 12 13 13 13 13 12 12 11 11 10 9 9 9 9 11 13 16 18 20 22 23
18 13 21 6 2 7 25 34 34 29 26 28 33 37 40 43 37 43 44 41 41 37 30 26 21 18 16 15 15 15 14 14 14 14 13 12 11 11 9 8 8 8 8 10 11 14 19 24 24
16 17 11 2 3 9 12 33 33 33 37 49 44 43 46 42 48 51 51 50 47 39 33 31 27 23 21 20 18 16 15 14 14 14 14 14 13 12 10 9 7 7 6 7 7 11 15 20 23
15 23 14 4 4 5 14 27 26 19 36 37 49 47 44 52 55 57 58 55 52 48 40 34 29 27 26 23 20 17 16 15 15 14 14 15 15 13 12 10 8 7 5 5 3 6 11 13 18
27 12 11 11 7 8 3 12 13 14 27 31 49 52 54 56 56 57 61 61 58 51 44 39 34 32 30 27 22 20 18 16 16 15 16 15 16 15 13 11 10 8 7 5 3 4 6 8 10
8 11 13 6 6 5 10 10 8 1 19 35 45 55 57 61 67 66 63 59 55 55 49 43 38 36 33 30 26 22 20 19 17 18 17 17 16 14 13 12 11 10 9 7 4 3 4 6 8
28 17 12 6 1 10 16 15 10 13 14 10 23 52 56 61 67 67 59 59 61 59 56 50 44 38 36 34 29 25 23 21 19 19 20 19 17 16 15 14 13 11 10 9 7 6 6 7 9
11 22 5 7 9 14 2 10 26 16 13 9 11 29 46 61 69 75 72 71 68 67 62 57 49 43 39 36 33 29 27 24 23 23 22 20 19 18 17 16 15 13 11 10 9 8 6 5 7
33 31 11 15 11 7 3 17 13 11 7 22 15 13 35 51 61 69 72 71 70 69 67 62 54 47 42 38 36 33 31 28 25 25 24 21 20 20 19 18 16 15 14 12 11 10 7 5 5
17 21 8 12 2 3 9 13 25 19 24 15 21 20 35 44 54 60 65 68 68 70 70 64 56 48 42 38 39 36 33 29 26 26 25 24 22 21 20 19 18 17 16 15 13 10 8 6 5
8 21 7 4 11 11 10 11 15 8 19 24 27 31 34 41 48 55 59 62 63 67 67 63 55 47 41 41 41 37 34 31 29 28 26 25 24 22 22 21 20 20 17 16 13 12 10 7 5
9 13 9 6 11 9 6 11 16 24 10 28 36 39 42 49 51 50 51 54 58 64 68 65 59 52 48 45 44 40 35 33 31 29 28 27 25 24 24 23 21 19 17 15 14 13 12 9 7
5 17 32 16 14 12 2 17 4 10 13 11 30 41 43 49 50 48 49 53 60 65 70 68 61 55 49 46 46 41 38 35 33 31 30 28 27 27 25 23 21 19 18 17 16 15 12 11 9
Wind_Direction_500mb
5 119 182 359 219 173 112 109 90 125 146 13 17 334 68 44 11 48 142 110 33 22 28 38 60 56 46 56 68 89 75 66 78 69 79 80 87 66 73 72 72 63 57 62 64 63 61 58 58
353 75 223 201 247 170 115 125 128 92 116 107 79 53 48 76 59 110 100 84 35 34 41 51 64 61 61 66 67 65 69 70 79 78 74 80 92 81 86 77 72 67 67 65 61 59 57 52 48
22 46 244 85 66 96 123 155 123 124 111 121 111 65 60 77 105 119 135 79 45 42 54 50 73 76 75 77 80 78 74 81 86 88 84 80 93 77 88 82 68 69 67 65 58 54 50 50 43
35 344 66 19 88 76 92 139 138 139 133 63 115 81 81 127 119 143 125 86 66 59 51 67 77 62 63 79 75 82 74 78 92 86 90 71 91 78 70 77 68 70 70 60 54 50 46 45 42
43 14 126 96 93 106 125 137 143 142 125 120 127 112 93 142 143 143 111 58 60 55 62 64 53 61 64 63 63 59 64 80 96 107 105 98 88 85 80 72 72 65 65 60 56 51 46 42 41
96 312 197 149 111 117 129 147 154 118 106 110 107 113 121 159 150 152 128 88 72 73 68 66 63 64 65 62 63 72 77 82 90 111 113 112 105 102 88 80 70 66 63 59 53 47 43 41 45
30 287 68 126 129 144 147 164 185 145 135 82 132 119 145 169 172 167 119 96 86 77 79 80 69 65 63 64 66 78 86 89 103 104 103 98 99 91 82 78 70 66 62 57 52 48 47 46 49
77 100 139 145 163 134 150 160 165 186 128 147 144 155 163 189 172 156 135 104 87 83 88 83 75 69 65 66 75 91 93 100 102 99 93 85 81 78 76 74 70 67 62 57 53 49 49 51 50
125 205 178 154 177 139 153 160 152 159 136 141 149 137 163 174 168 162 146 116 91 95 92 86 77 71 74 80 92 93 101 101 96 95 95 88 89 80 76 74 71 68 62 56 52 51 54 53 56
274 245 134 130 136 158 164 170 163 172 153 156 150 160 154 167 169 163 156 130 110 92 89 93 93 89 85 90 98 100 98 99 103 103 100 97 91 87 80 77 74 69 63 57 52 53 55 54 53
68 20 117 135 128 153 160 168 175 165 190 189 193 182 166 169 171 173 168 159 129 106 106 114 99 85 86 93 99 101 103 108 111 109 106 102 93 87 84 81 78 72 67 61 56 55 53 51 49
134 81 89 120 146 148 166 154 180 203 113 155 188 192 180 176 178 179 177 173 146 124 120 109 98 89 88 96 104 109 112 117 118 117 116 111 99 94 90 86 81 75 71 63 57 54 52 50 48
113 133 80 110 134 127 147 162 201 229 205 195 191 187 184 180 180 183 189 186 170 149 126 108 109 98 95 103 111 121 123 123 128 131 127 118 109 99 92 88 83 77 72 65 57 55 53 51 47
113 125 118 103 120 127 194 169 189 196 204 199 189 183 184 186 188 192 194 194 183 169 152 124 124 119 113 117 130 132 130 135 143 144 138 128 119 110 100 93 87 79 74 66 59 55 53 49 47
130 120 125 119 118 108 173 230 219 174 181 188 185 184 187 190 196 197 200 199 192 189 183 161 153 146 136 138 145 142 143 150 155 152 148 142 131 121 111 102 92 81 75 68 59 54 49 44 42
134 169 197 144 177 158 219 254 171 201 189 187 186 188 193 198 201 200 203 203 203 202 200 187 177 170 159 156 157 156 159 164 166 162 159 153 144 134 122 111 100 86 77 70 58 50 44 37 35
203 214 220 199 182 183 230 273 159 206 202 203 196 197 198 201 205 206 206 208 209 209 207 201 197 186 177 174 171 172 175 176 176 171 171 167 159 146 131 117 109 94 80 69 56 46 38 28 26
190 210 214 224 156 226 228 251 223 192 206 220 211 205 206 208 213 212 212 213 214 212 210 207 205 197 188 183 183 185 184 183 183 184 183 178 174 166 152 130 119 108 90 73 55 43 33 21 14
198 197 212 180 121 232 247 262 257 242 231 227 220 215 212 213 209 213 213 214 216 215 213 211 208 201 195 191 191 193 192 189 187 191 191 187 186 183 176 152 140 126 106 84 58 41 30 22 14
177 195 208 183 136 227 271 273 268 246 238 230 223 219 216 207 210 212 212 215 218 218 216 211 208 203 201 196 196 198 196 194 193 194 196 195 195 194 186 174 158 145 128 100 65 43 37 29 24
200 209 191 255 148 234 297 274 242 235 229 229 226 224 218 211 209 210 213 217 217 216 214 212 209 206 204 200 199 203 200 198 197 195 198 199 202 199 194 183 172 160 151 127 91 46 41 30 31
216 193 141 140 193 262 279 286 252 226 233 220 222 215 215 211 212 214 215 216 216 214 211 208 207 208 205 202 204 202 203 202 200 199 200 201 203 200 194 184 180 177 168 159 143 69 44 28 29
191 140 140 131 187 312 198 261 258 139 246 233 219 216 212 211 210 210 213 217 215 211 210 207 206 207 205 205 207 208 208 204 203 203 202 203 205 201 194 189 187 185 181 176 155 120 65 45 53
138 114 76 79 216 250 224 225 256 218 227 228 219 214 210 207 208 209 212 213 213 210 207 207 207 207 206 207 209 209 208 205 207 206 206 205 203 199 194 191 190 186 180 171 160 136 105 87 76
174 158 138 223 206 240 122 208 253 244 233 244 248 213 207 208 207 207 211 210 209 208 205 206 207 207 207 208 209 209 208 208 208 207 206 204 201 197 195 194 193 189 185 179 171 159 142 120 91
187 186 168 197 199 218 129 226 246 249 274 233 232 225 200 202 206 208 209 208 208 206 206 207 206 206 207 208 208 209 209 212 212 209 208 206 202 199 197 197 196 195 196 191 188 175 167 140 110
180 214 136 107 53 273 204 258 276 248 240 205 218 203 198 200 203 204 204 206 208 207 207 207 206 206 208 209 208 209 211 214 215 212 209 207 205 203 201 201 201 201 200 197 194 185 181 173 133
228 140 162 206 180 232 214 266 249 256 227 200 203 206 197 196 196 199 204 206 207 208 206 205 206 210 210 210 208 209 212 214 213 210 209 209 207 206 205 205 205 204 202 202 198 192 192 187 166
165 188 209 234 213 218 249 242 217 237 210 208 203 199 195 194 194 196 199 203 206 204 202 202 203 206 209 209 207 209 211 212 210 208 209 209 209 208 207 208 207 208 207 205 204 203 201 200 189
265 218 197 207 194 242 312 248 172 253 262 239 203 196 197 197 196 198 201 203 202 199 198 201 203 207 210 209 207 208 209 209 208 208 209 210 210 210 210 210 211 213 212 210 210 211 211 212 211
Wind_Speed_850mb
5 2 2 0 8 2 9 8 3 9 7 2 3 2 14 19 9 7 16 6 8 13 14 15 14 9 9 18 16 16 21 24 26 28 27 31 40 43 31 16 22 27 32 32 35 33 35 34 34
3 1 1 1 4 8 8 9 12 6 15 15 10 6 11 11 13 17 8 6 9 12 12 12 9 15 19 15 16 21 21 21 25 30 25 33 38 39 19 21 23 25 32 36 34 36 37 36 36
2 2 4 2 2 8 9 9 13 18 12 2 7 14 7 9 12 8 12 6 10 10 13 14 17 14 12 13 17 21 16 20 25 27 29 31 29 30 16 18 21 34 36 33 35 39 37 33 31
4 2 3 3 15 8 8 16 19 21 5 2 12 15 11 11 7 12 8 7 9 9 12 11 11 15 20 18 16 16 17 19 25 25 33 29 28 21 21 24 31 34 35 37 40 38 36 33 30
4 1 3 8 11 8 7 13 17 10 10 9 2 9 10 10 15 15 7 8 12 10 9 12 14 17 23 21 19 18 18 20 24 30 34 33 30 20 26 33 33 38 39 41 42 40 37 34 32
2 2 5 7 12 10 11 17 10 7 9 9 10 12 9 18 19 13 11 9 9 8 10 12 15 18 21 20 19 18 21 24 24 26 32 35 29 21 24 29 34 40 42 44 43 40 38 35 34
2 2 5 11 15 13 11 16 9 8 11 7 13 7 11 23 22 15 11 10 10 11 10 12 15 18 21 19 19 21 23 24 22 27 30 28 28 28 31 35 38 42 43 44 42 39 38 36 38
1 2 9 4 16 10 17 14 3 5 7 13 9 7 10 29 25 16 11 8 10 12 12 14 15 17 18 19 20 21 23 22 25 30 32 29 31 32 33 39 41 40 41 42 42 40 38 38 39
4 4 7 10 15 14 23 12 9 8 12 7 7 8 10 29 25 19 12 9 10 11 13 14 15 17 18 19 20 25 25 26 27 29 30 28 29 30 33 38 38 39 39 41 40 39 39 40 40
2 3 3 5 7 16 26 10 21 12 12 7 7 9 17 32 26 19 14 9 8 11 12 12 12 15 19 20 22 24 26 27 25 25 25 27 28 29 30 34 34 37 37 38 39 39 40 40 43
3 2 7 8 5 17 24 12 12 13 9 9 12 18 25 35 29 23 17 11 9 9 10 10 11 16 19 20 21 23 24 24 23 24 25 25 25 27 28 30 31 33 35 36 36 38 42 44 46
6 5 3 7 9 14 21 16 10 11 5 9 11 15 26 34 30 25 19 12 8 8 8 11 11 15 17 18 18 20 21 22 21 20 21 23 22 24 25 26 28 29 33 33 35 39 41 43 44
5 8 7 10 12 11 18 8 2 7 12 9 12 22 30 33 30 26 23 16 10 7 7 10 9 12 15 16 15 17 19 19 19 18 18 20 20 20 21 22 24 26 30 32 34 37 37 39 41
9 15 14 6 9 9 8 6 6 7 17 16 16 25 31 33 31 29 24 18 13 8 6 8 8 10 12 13 13 15 16 17 16 17 16 16 17 17 17 18 20 23 26 29 31 33 34 35 36
20 11 8 6 3 4 2 9 12 11 18 19 22 27 33 34 33 26 21 20 15 11 9 8 9 9 10 11 12 13 14 15 15 15 15 14 14 15 14 15 16 19 22 25 27 28 31 31 32
8 4 12 8 5 2 7 14 7 14 19 21 24 28 36 38 33 30 26 24 20 16 13 11 10 10 9 10 11 12 13 13 14 13 13 13 13 13 13 13 14 15 17 22 24 25 26 28 28
5 15 19 5 6 4 11 11 7 11 19 23 27 31 35 37 39 38 33 28 25 21 18 15 13 12 11 11 11 12 13 13 13 12 12 12 11 11 10 11 11 12 14 18 20 21 22 24 25
29 24 9 24 5 7 13 30 15 12 17 25 28 32 37 40 43 38 37 35 32 29 25 21 18 14 13 12 12 13 13 13 13 12 12 11 11 10 9 9 9 9 11 13 16 18 20 22 23
18 13 21 6 2 7 25 34 34 29 26 28 33 37 40 43 37 43 44 41 41 37 30 26 21 18 16 15 15 15 14 14 14 14 13 12 11 11 9 8 8 8 8 10 11 14 19 24 24
16 17 11 2 3 9 12 33 33 33 37 49 44 43 46 42 48 51 51 50 47 39 33 31 27 23 21 20 18 16 15 14 14 14 14 14 13 12 10 9 7 7 6 7 7 11 15 20 23
15 23 14 4 4 5 14 27 26 19 36 37 49 47 44 52 55 57 58 55 52 48 40 34 29 27 26 23 20 17 16 15 15 14 14 15 15 13 12 10 8 7 5 5 3 6 11 13 18
27 12 11 11 7 8 3 12 13 14 27 31 49 52 54 56 56 57 61 61 58 51 44 39 34 32 30 27 22 20 18 16 16 15 16 15 16 15 13 11 10 8 7 5 3 4 6 8 10
8 11 13 6 6 5 10 10 8 1 19 35 45 55 57 61 67 66 63 59 55 55 49 43 38 36 33 30 26 22 20 19 17 18 17 17 16 14 13 12 11 10 9 7 4 3 4 6 8
28 17 12 6 1 10 16 15 10 13 14 10 23 52 56 61 67 67 59 59 61 59 56 50 44 38 36 34 29 25 23 21 19 19 20 19 17 16 15 14 13 11 10 9 7 6 6 7 9
11 22 5 7 9 14 2 10 26 16 13 9 11 29 46 61 69 75 72 71 68 67 62 57 49 43 39 36 33 29 27 24 23 23 22 20 19 18 17 16 15 13 11 10 9 8 6 5 7
33 31 11 15 11 7 3 17 13 11 7 22 15 13 35 51 61 69 72 71 70 69 67 62 54 47 42 38 36 33 31 28 25 25 24 21 20 20 19 18 16 15 14 12 11 10 7 5 5
17 21 8 12 2 3 9 13 25 19 24 15 21 20 35 44 54 60 65 68 68 70 70 64 56 48 42 38 39 36 33 29 26 26 25 24 22 21 20 19 18 17 16 15 13 10 8 6 5
8 21 7 4 11 11 10 11 15 8 19 24 27 31 34 41 48 55 59 62 63 67 67 63 55 47 41 41 41 37 34 31 29 28 26 25 24 22 22 21 20 20 17 16 13 12 10 7 5
9 13 9 6 11 9 6 11 16 24 10 28 36 39 42 49 51 50 51 54 58 64 68 65 59 52 48 45 44 40 35 33 31 29 28 27 25 24 24 23 21 19 17 15 14 13 12 9 7
5 17 32 16 14 12 2 17 4 10 13 11 30 41 43 49 50 48 49 53 60 65 70 68 61 55 49 46 46 41 38 35 33 31 30 28 27 27 25 23 21 19 18 17 16 15 12 11 9
Wind_Direction_850mb
5 119 182 359 219 173 112 109 90 125 146 13 17 334 68 44 11 48 142 110 33 22 28 38 60 56 46 56 68 89 75 66 78 69 79 80 87 66 73 72 72 63 57 62 64 63 61 58 58
353 75 223 201 247 170 115 125 128 92 116 107 79 53 48 76 59 110 100 84 35 34 41 51 64 61 61 66 67 65 69 70 79 78 74 80 92 81 86 77 72 67 67 65 61 59 57 52 48
22 46 244 85 66 96 123 155 123 124 111 121 111 65 60 77 105 119 135 79 45 42 54 50 73 76 75 77 80 78 74 81 86 88 84 80 93 77 88 82 68 69 67 65 58 54 50 50 43
35 344 66 19 88 76 92 139 138 139 133 63 115 81 81 127 119 143 125 86 66 59 51 67 77 62 63 79 75 82 74 78 92 86 90 71 91 78 70 77 68 70 70 60 54 50 46 45 42
43 14 126 96 93 106 125 137 143 142 125 120 127 112 93 142 143 143 111 58 60 55 62 64 53 61 64 63 63 59 64 80 96 107 105 98 88 85 80 72 72 65 65 60 56 51 46 42 41
96 312 197 149 111 117 129 147 154 118 106 110 107 113 121 159 150 152 128 88 72 73 68 66 63 64 65 62 63 72 77 82 90 111 113 112 105 102 88 80 70 66 63 59 53 47 43 41 45
30 287 68 126 129 144 147 164 185 145 135 82 132 119 145 169 172 167 119 96 86 77 79 80 69 65 63 64 66 78 86 89 103 104 103 98 99 91 82 78 70 66 62 57 52 48 47 46 49
77 100 139 145 163 134 150 160 165 186 128 147 144 155 163 189 172 156 135 104 87 83 88 83 75 69 65 66 75 91 93 100 102 99 93 85 81 78 76 74 70 67 62 57 53 49 49 51 50
125 205 178 154 177 139 153 160 152 159 136 141 149 137 163 174 168 162 146 116 91 95 92 86 77 71 74 80 92 93 101 101 96 95 95 88 89 80 76 74 71 68 62 56 52 51 54 53 56
274 245 134 130 136 158 164 170 163 172 153 156 150 160 154 167 169 163 156 130 110 92 89 93 93 89 85 90 98 100 98 99 103 103 100 97 91 87 80 77 74 69 63 57 52 53 55 54 53
68 20 117 135 128 153 160 168 175 165 190 189 193 182 166 169 171 173 168 159 129 106 106 114 99 85 86 93 99 101 103 108 111 109 106 102 93 87 84 81 78 72 67 61 56 55 53 51 49
134 81 89 120 146 148 166 154 180 203 113 155 188 192 180 176 178 179 177 173 146 124 120 109 98 89 88 96 104 109 112 117 118 117 116 111 99 94 90 86 81 75 71 63 57 54 52 50 48
113 133 80 110 134 127 147 162 201 229 205 195 191 187 184 180 180 183 189 186 170 149 126 108 109 98 95 103 111 121 123 123 128 131 127 118 109 99 92 88 83 77 72 65 57 55 53 51 47
113 125 118 103 120 127 194 169 189 196 204 199 189 183 184 186 188 192 194 194 183 169 152 124 124 119 113 117 130 132 130 135 143 144 138 128 119 110 100 93 87 79 74 66 59 55 53 49 47
130 120 125 119 118 108 173 230 219 174 181 188 185 184 187 190 196 197 200 199 192 189 183 161 153 146 136 138 145 142 143 150 155 152 148 142 131 121 111 102 92 81 75 68 59 54 49 44 42
134 169 197 144 177 158 219 254 171 201 189 187 186 188 193 198 201 200 203 203 203 202 200 187 177 170 159 156 157 156 159 164 166 162 159 153 144 134 122 111 100 86 77 70 58 50 44 37 35
203 214 220 199 182 183 230 273 159 206 202 203 196 197 198 201 205 206 206 208 209 209 207 201 197 186 177 174 171 172 175 176 176 171 171 167 159 146 131 117 109 94 80 69 56 46 38 28 26
190 210 214 224 156 226 228 251 223 192 206 220 211 205 206 208 213 212 212 213 214 212 210 207 205 197 188 183 183 185 184 183 183 184 183 178 174 166 152 130 119 108 90 73 55 43 33 21 14
198 197 212 180 121 232 247 262 257 242 231 227 220 215 212 213 209 213 213 214 216 215 213 211 208 201 195 191 191 193 192 189 187 191 191 187 186 183 176 152 140 126 106 84 58 41 30 22 14
177 195 208 183 136 227 271 273 268 246 238 230 223 219 216 207 210 212 212 215 218 218 216 211 208 203 201 196 196 198 196 194 193 194 196 195 195 194 186 174 158 145 128 100 65 43 37 29 24
200 209 191 255 148 234 297 274 242 235 229 229 226 224 218 211 209 210 213 217 217 216 214 212 209 206 204 200 199 203 200 198 197 195 198 199 202 199 194 183 172 160 151 127 91 46 41 30 31
216 193 141 140 193 262 279 286 252 226 233 220 222 215 215 211 212 214 215 216 216 214 211 208 207 208 205 202 204 202 203 202 200 199 200 201 203 200 194 184 180 177 168 159 143 69 44 28 29
191 140 140 131 187 312 198 261 258 139 246 233 219 216 212 211 210 210 213 217 215 211 210 207 206 207 205 205 207 208 208 204 203 203 202 203 205 201 194 189 187 185 181 176 155 120 65 45 53
138 114 76 79 216 250 224 225 256 218 227 228 219 214 210 207 208 209 212 213 213 210 207 207 207 207 206 207 209 209 208 205 207 206 206 205 203 199 194 191 190 186 180 171 160 136 105 87 76
174 158 138 223 206 240 122 208 253 244 233 244 248 213 207 208 207 207 211 210 209 208 205 206 207 207 207 208 209 209 208 208 208 207 206 204 201 197 195 194 193 189 185 179 171 159 142 120 91
187 186 168 197 199 218 129 226 246 249 274 233 232 225 200 202 206 208 209 208 208 206 206 207 206 206 207 208 208 209 209 212 212 209 208 206 202 199 197 197 196 195 196 191 188 175 167 140 110
180 214 136 107 53 273 204 258 276 248 240 205 218 203 198 200 203 204 204 206 208 207 207 207 206 206 208 209 208 209 211 214 215 212 209 207 205 203 201 201 201 201 200 197 194 185 181 173 133
228 140 162 206 180 232 214 266 249 256 227 200 203 206 197 196 196 199 204 206 207 208 206 205 206 210 210 210 208 209 212 214 213 210 209 209 207 206 205 205 205 204 202 202 198 192 192 187 166
165 188 209 234 213 218 249 242 217 237 210 208 203 199 195 194 194 196 199 203 206 204 202 202 203 206 209 209 207 209 211 212 210 208 209 209 209 208 207 208 207 208 207 205 204 203 201 200 189
265 218 197 207 194 242 312 248 172 253 262 239 203 196 197 197 196 198 201 203 202 199 198 201 203 207 210 209 207 208 209 209 208 208 209 210 210 210 210 210 211 213 212 210 210 211 211 212 211